Location: Az?znagar
(16.8373°N, 80.5091°E)
Time: 08:46:05
(UTC+00:00)

Meteor 1-31 Rocket - Visible Passes

Search period start: 26 June 2022 00:00
Search period end: 06 July 2022 00:00
Orbit: 516 x 542 km, 97.7° (Epoch: 25 June)

Date Brightness Start Highest point End Pass type
(mag) Time Alt. Az. Time Alt. Az. Time Alt. Az.
30 Jun 3.7 23:38:50 10° NNE 23:42:37 52° E 23:46:26 10° S visible
01 Jul 4.4 23:28:26 10° NNE 23:32:01 35° E 23:35:36 10° SSE visible
02 Jul 5.1 23:18:10 10° NE 23:21:23 25° E 23:24:36 10° SSE visible
03 Jul 5.6 23:08:08 10° NE 23:10:45 17° E 23:13:23 10° SE visible
04 Jul 5.8 22:58:32 10° ENE 23:00:06 12° E 23:01:40 10° ESE visible
